| time (UTC) | temp F | wind direction | speed MPH | gust MPH | rain 1hr in | rain 24hr in | rain mn in | humidity % | barometer mb |
| 20260905041840 | 87 | 153 | 1.0 | 3.0 | 0.00 | 0.00 | 1.35 | 62 | 1013.5 |
| 20260905040813 | 88 | 162 | 1.0 | 3.0 | 0.00 | 0.00 | 1.34 | 61 | 1013.5 |
| 20260905034828 | 88 | 168 | 2.0 | 6.0 | 0.00 | 0.00 | 1.32 | 58 | 1013.5 |
| 20260905032826 | 89 | 173 | 1.0 | 2.0 | 0.00 | 0.00 | 1.30 | 55 | 1013.5 |
| 20260905031839 | 90 | 153 | 1.0 | 3.0 | 0.00 | 0.00 | 1.29 | 54 | 1013.5 |
| 20260905030830 | 90 | 160 | 2.0 | 4.0 | 0.00 | 0.00 | 1.28 | 53 | 1013.5 |
| 20260905021810 | 92 | 158 | 1.0 | 3.0 | 0.00 | 0.00 | 1.23 | 51 | 1012.8 |
| 20260905020831 | 92 | 167 | 1.0 | 3.0 | 0.00 | 0.00 | 1.22 | 51 | 1012.5 |
| 20260905015819 | 92 | 156 | 0.0 | 1.0 | 0.00 | 0.00 | 1.21 | 50 | 1012.5 |
| 20260905014806 | 93 | 157 | 1.0 | 3.0 | 0.00 | 0.00 | 1.20 | 50 | 1012.1 |
| 20260905013806 | 93 | 163 | 1.0 | 2.0 | 0.00 | 0.00 | 1.19 | 50 | 1012.1 |
| 20260905012827 | 93 | 167 | 1.0 | 3.0 | 0.00 | 0.00 | 1.18 | 49 | 1011.8 |
| 20260905011830 | 94 | 165 | 1.0 | 3.0 | 0.00 | 0.00 | 1.17 | 48 | 1012.1 |
| 20260905005824 | 94 | 151 | 1.0 | 2.0 | 0.00 | 0.00 | 1.15 | 47 | 1011.8 |
| 20260905004805 | 95 | 166 | 2.0 | 4.0 | 0.00 | 0.00 | 1.14 | 46 | 1011.8 |
| 20260905002810 | 96 | 172 | 1.0 | 3.0 | 0.00 | 0.00 | 1.12 | 44 | 1011.1 |
| 20260905001812 | 96 | 171 | 1.0 | 3.0 | 0.00 | 0.00 | 1.11 | 42 | 1011.1 |
| 20260905000818 | 96 | 172 | 1.0 | 4.0 | 0.00 | 0.00 | 1.10 | 43 | 1011.1 |
| 20260904234844 | 97 | 163 | 1.0 | 4.0 | 0.00 | 0.00 | 1.08 | 44 | 1011.1 |
| 20260904233808 | 97 | 172 | 1.0 | 3.0 | 0.00 | 0.00 | 1.07 | 43 | 1010.8 |
| 20260904232840 | 97 | 175 | 1.0 | 4.0 | 0.00 | 0.00 | 1.06 | 43 | 1011.1 |
| 20260904225835 | 99 | 176 | 1.0 | 4.0 | 0.00 | 0.00 | 1.03 | 40 | 1011.1 |
| 20260904223817 | 99 | 154 | 1.0 | 3.0 | 0.00 | 0.00 | 1.01 | 40 | 1011.5 |
| 20260904222835 | 98 | 171 | 2.0 | 5.0 | 0.00 | 0.00 | 1.00 | 41 | 1011.5 |
| 20260904221829 | 99 | 153 | 1.0 | 6.0 | 0.00 | 0.00 | 9.94 | 41 | 1011.5 |
| 20260904220809 | 99 | 223 | 0.0 | 2.0 | 0.00 | 0.00 | 9.85 | 41 | 1011.5 |
| 20260904214842 | 99 | 173 | 2.0 | 6.0 | 0.00 | 0.00 | 9.65 | 41 | 1011.5 |
| 20260904213842 | 99 | 171 | 2.0 | 6.0 | 0.00 | 0.00 | 9.55 | 42 | 1011.5 |
| 20260904212840 | 99 | 177 | 0.0 | 3.0 | 0.00 | 0.00 | 9.44 | 43 | 1011.8 |
| 20260904210830 | 97 | 168 | 2.0 | 6.0 | 0.00 | 0.00 | 9.25 | 44 | 1011.8 |
| 20260904205810 | 97 | 174 | 3.0 | 7.0 | 0.00 | 0.00 | 9.15 | 44 | 1012.1 |
| 20260904204846 | 97 | 172 | 2.0 | 5.0 | 0.00 | 0.00 | 9.05 | 45 | 1012.5 |
| 20260904203832 | 97 | 175 | 2.0 | 5.0 | 0.00 | 0.00 | 8.94 | 45 | 1012.5 |
| 20260904201819 | 96 | 163 | 2.0 | 6.0 | 0.00 | 0.00 | 8.75 | 47 | 1012.8 |
| 20260904200820 | 97 | 189 | 2.0 | 4.0 | 0.00 | 0.00 | 8.65 | 46 | 1012.8 |
| 20260904195805 | 96 | 177 | 1.0 | 5.0 | 0.00 | 0.00 | 8.55 | 47 | 1013.2 |
| 20260904192841 | 95 | 179 | 1.0 | 6.0 | 0.00 | 0.00 | 8.25 | 48 | 1013.5 |
| 20260904191816 | 96 | 188 | 1.0 | 6.0 | 0.00 | 0.00 | 8.15 | 47 | 1013.5 |
| 20260904190829 | 94 | 139 | 2.0 | 6.0 | 0.00 | 0.00 | 8.05 | 50 | 1013.5 |
| 20260904185815 | 95 | 185 | 2.0 | 6.0 | 0.00 | 0.00 | 7.95 | 49 | 1013.5 |
| 20260904184821 | 96 | 192 | 3.0 | 7.0 | 0.00 | 0.00 | 7.85 | 48 | 1014.2 |
| 20260904183804 | 94 | 170 | 3.0 | 5.0 | 0.00 | 0.00 | 7.74 | 50 | 1014.2 |
| 20260904182812 | 93 | 191 | 1.0 | 3.0 | 0.00 | 0.00 | 7.65 | 53 | 1014.2 |
| 20260904181811 | 93 | 184 | 2.0 | 7.0 | 0.00 | 0.00 | 7.55 | 51 | 1014.5 |
| 20260904180805 | 93 | 146 | 1.0 | 3.0 | 0.00 | 0.00 | 7.45 | 51 | 1014.5 |
| 20260904175827 | 92 | 161 | 2.0 | 6.0 | 0.00 | 0.00 | 7.35 | 52 | 1014.5 |
| 20260904174841 | 91 | 172 | 2.0 | 6.0 | 0.00 | 0.00 | 7.25 | 55 | 1014.5 |
| 20260904173840 | 91 | 159 | 2.0 | 7.0 | 0.00 | 0.00 | 7.15 | 58 | 1014.8 |
| 20260904172832 | 91 | 170 | 1.0 | 4.0 | 0.00 | 0.00 | 7.05 | 56 | 1014.8 |
| 20260904171816 | 89 | 183 | 2.0 | 6.0 | 0.00 | 0.00 | 6.95 | 63 | 1014.8 |
| 20260904170809 | 89 | 229 | 1.0 | 3.0 | 0.00 | 0.00 | 6.85 | 63 | 1015.2 |
| 20260904164836 | 88 | 213 | 1.0 | 3.0 | 0.00 | 0.00 | 6.65 | 64 | 1015.2 |
| 20260904162831 | 88 | 206 | 1.0 | 4.0 | 0.00 | 0.00 | 6.45 | 67 | 1015.2 |
| 20260904161836 | 86 | 268 | 1.0 | 5.0 | 0.00 | 0.00 | 6.35 | 71 | 1015.2 |
| 20260904160805 | 87 | 201 | 2.0 | 6.0 | 0.00 | 0.00 | 6.25 | 70 | 1015.5 |
| 20260904155846 | 85 | 170 | 2.0 | 6.0 | 0.00 | 0.00 | 6.15 | 74 | 1015.2 |
| 20260904153806 | 86 | 215 | 2.0 | 6.0 | 0.00 | 0.00 | 5.95 | 75 | 1015.2 |
| 20260904152839 | 85 | 206 | 2.0 | 4.0 | 0.00 | 0.00 | 5.85 | 78 | 1015.2 |
| 20260904151831 | 84 | 178 | 2.0 | 6.0 | 0.00 | 0.00 | 5.75 | 80 | 1015.2 |
| 20260904150827 | 83 | 173 | 2.0 | 4.0 | 0.00 | 0.00 | 5.65 | 83 | 1015.2 |
| 20260904145807 | 83 | 179 | 2.0 | 5.0 | 0.00 | 0.00 | 5.55 | 82 | 1015.2 |
| 20260904144843 | 82 | 172 | 3.0 | 7.0 | 0.00 | 0.00 | 5.45 | 84 | 1014.8 |
| 20260904143845 | 82 | 178 | 2.0 | 4.0 | 0.00 | 0.00 | 5.35 | 86 | 1014.8 |
| 20260904142831 | 82 | 166 | 3.0 | 7.0 | 0.00 | 0.00 | 5.25 | 86 | 1014.8 |
| 20260904141848 | 82 | 187 | 1.0 | 2.0 | 0.00 | 0.00 | 5.15 | 88 | 1015.2 |
| 20260904140843 | 82 | 170 | 1.0 | 3.0 | 0.00 | 0.00 | 5.05 | 89 | 1015.2 |
| 20260904135843 | 81 | 175 | 1.0 | 3.0 | 0.00 | 0.00 | 4.95 | 92 | 1014.8 |
| 20260904134847 | 78 | 173 | 2.0 | 5.0 | 0.00 | 0.00 | 4.84 | 99 | 1014.8 |
| 20260904133833 | 77 | 159 | 1.0 | 2.0 | 0.00 | 0.00 | 4.75 | 99 | 1014.8 |
| 20260904132830 | 77 | 172 | 1.0 | 2.0 | 0.00 | 0.00 | 4.65 | 99 | 1014.8 |
| 20260904131826 | 77 | 173 | 1.0 | 2.0 | 0.00 | 0.00 | 4.55 | 99 | 1014.8 |
| 20260904130843 | 77 | 171 | 1.0 | 2.0 | 0.00 | 0.00 | 4.45 | 99 | 1014.8 |
| 20260904125830 | 76 | 154 | 0.0 | 2.0 | 0.00 | 0.00 | 4.34 | 99 | 1014.5 |
| 20260904124837 | 76 | 132 | 0.0 | 1.0 | 0.00 | 0.00 | 4.25 | 99 | 1014.5 |
| 20260904123809 | 76 | 131 | 0.0 | 1.0 | 0.00 | 0.00 | 4.15 | 99 | 1014.2 |
| 20260904120848 | 76 | 189 | 0.0 | 2.0 | 0.00 | 0.00 | 3.85 | 99 | 1013.8 |
| 20260904115843 | 76 | 176 | 0.0 | 2.0 | 0.00 | 0.00 | 3.75 | 99 | 1013.8 |
| 20260904113814 | 76 | 169 | 0.0 | 0.0 | 0.00 | 0.00 | 3.55 | 99 | 1013.5 |
| 20260904112805 | 76 | 187 | 0.0 | 0.0 | 0.00 | 0.00 | 3.44 | 99 | 1013.5 |
| 20260904111840 | 76 | 163 | 0.0 | 0.0 | 0.00 | 0.00 | 3.35 | 99 | 1013.5 |
| 20260904110821 | 76 | 200 | 0.0 | 1.0 | 0.00 | 0.00 | 3.25 | 99 | 1013.5 |
| 20260904104807 | 76 | 170 | 0.0 | 1.0 | 0.00 | 0.00 | 3.05 | 99 | 1013.5 |
| 20260904102840 | 76 | 183 | 0.0 | 2.0 | 0.00 | 0.00 | 2.85 | 99 | 1013.5 |
| 20260904101827 | 76 | 170 | 0.0 | 1.0 | 0.00 | 0.00 | 2.75 | 99 | 1013.2 |
| 20260904100820 | 76 | 164 | 0.0 | 2.0 | 0.00 | 0.00 | 2.65 | 99 | 1013.5 |
| 20260904095817 | 76 | 160 | 0.0 | 1.0 | 0.00 | 0.00 | 2.54 | 99 | 1013.2 |
| 20260904094831 | 76 | 135 | 0.0 | 3.0 | 0.00 | 0.00 | 2.45 | 99 | 1013.5 |
| 20260904093813 | 76 | 115 | 0.0 | 1.0 | 0.00 | 0.00 | 2.35 | 99 | 1013.5 |
| 20260904092806 | 76 | 128 | 0.0 | 2.0 | 0.00 | 0.00 | 2.25 | 99 | 1013.2 |
| 20260904091805 | 76 | 110 | 1.0 | 2.0 | 0.00 | 0.00 | 2.15 | 99 | 1013.2 |
| 20260904085840 | 77 | 158 | 1.0 | 4.0 | 0.00 | 0.00 | 1.95 | 99 | 1013.2 |
| 20260904084832 | 76 | 210 | 0.0 | 2.0 | 0.00 | 0.00 | 1.85 | 99 | 1013.2 |
| 20260904083818 | 76 | 165 | 0.0 | 2.0 | 0.00 | 0.00 | 1.75 | 99 | 1013.2 |
| 20260904082831 | 76 | 169 | 1.0 | 2.0 | 0.00 | 0.00 | 1.65 | 99 | 1013.2 |
| 20260904081810 | 76 | 168 | 2.0 | 4.0 | 0.00 | 0.00 | 1.55 | 99 | 1013.2 |
| 20260904080835 | 76 | 173 | 1.0 | 3.0 | 0.00 | 0.00 | 1.45 | 99 | 1013.2 |
| 20260904075832 | 76 | 186 | 1.0 | 4.0 | 0.00 | 0.00 | 1.35 | 99 | 1013.2 |
| 20260904074825 | 76 | 169 | 2.0 | 3.0 | 0.00 | 0.00 | 1.25 | 99 | 1013.2 |
| 20260904073840 | 76 | 161 | 2.0 | 6.0 | 0.00 | 0.00 | 1.14 | 99 | 1013.2 |
| 20260904072825 | 76 | 150 | 0.0 | 2.0 | 0.00 | 0.00 | 1.05 | 99 | 1013.2 |
| 20260904071819 | 76 | 169 | 1.0 | 2.0 | 0.00 | 0.00 | 0.95 | 99 | 1013.2 |
| 20260904070829 | 75 | 168 | 1.0 | 2.0 | 0.00 | 0.00 | 0.85 | 99 | 1013.5 |
| 20260904065817 | 76 | 167 | 1.0 | 3.0 | 0.00 | 0.00 | 0.75 | 99 | 1013.5 |
| 20260904064821 | 75 | 173 | 1.0 | 4.0 | 0.00 | 0.00 | 0.65 | 99 | 1013.5 |
| 20260904063811 | 75 | 171 | 2.0 | 4.0 | 0.00 | 0.00 | 0.55 | 99 | 1013.5 |
| 20260904061814 | 75 | 163 | 2.0 | 5.0 | 0.00 | 0.00 | 0.35 | 99 | 1013.5 |
| 20260904060815 | 75 | 174 | 3.0 | 5.0 | 0.00 | 0.00 | 0.25 | 99 | 1013.8 |
| 20260904055839 | 75 | 172 | 3.0 | 8.0 | 0.00 | 0.00 | 0.15 | 99 | 1013.5 |
| 20260904054827 | 78 | 159 | 3.0 | 8.0 | 0.00 | 0.00 | 0.05 | 90 | 1013.8 |
| 20260904052820 | 79 | 167 | 1.0 | 3.0 | 0.00 | 0.00 | 0.00 | 88 | 1013.8 |
| 20260904051821 | 80 | 155 | 2.0 | 4.0 | 0.00 | 0.00 | 0.00 | 83 | 1013.5 |
| 20260904045815 | 81 | 154 | 2.0 | 5.0 | 0.00 | 0.00 | 0.00 | 78 | 1013.5 |
| 20260904044813 | 82 | 155 | 3.0 | 7.0 | 0.00 | 0.00 | 0.00 | 76 | 1013.5 |